IRS-P5 (CARTOSAT-1)

Last updated on Wed Oct 15 2025 00:02:29 GMT+0000 (Coordinated Universal Time)

1 28649U 05017A 25287.32635535 .00001994 00000+0 21170-3 0 9994 2 28649 97.5576 316.3596 0002270 116.9562 243.1888 14.90104243107194
UTC large
Height (km)
Speed (km/s)
/
Latitude / Longitude
Inclination (degrees)
Orbital Period (minutes)
Azimuth
Elevation
Range (km)
Doppler Factor

Next 0 passes for location: London (51.5072 / 0.1276)

Sorry there are no passes over London.